QPF
0.00 0.01 0.01 0.01 0.02 0.01 0.01 0.01 0.02 0.03 0.03 0.01 0.00 0.00 0.01 0.01 0.01 0.01 0.00 0.01 0.01 0.01 0.01 0.01 0.01 0.02 0.03 0.03 0.02 0.01 0.01 0.01 0.01 0.02 0.04 0.06 0.09 0.11 0.09 0.08 0.09 0.10 0.09 0.07
0.01 0.01 0.00 0.01 0.02 0.02 0.01 0.02 0.02 0.04 0.02 0.01 0.00 0.00 0.00 0.00 0.01 0.01 0.00 0.00 0.00 0.00 0.00 0.01 0.01 0.01 0.02 0.02 0.02 0.02 0.02 0.02 0.02 0.01 0.02 0.05 0.06 0.09 0.10 0.08 0.08 0.09 0.09 0.08
0.00 0.00 0.00 0.01 0.02 0.02 0.02 0.03 0.02 0.03 0.02 0.01 0.00 0.00 0.00 0.00 0.01 0.01 0.00 0.00 0.00 0.00 0.00 0.00 0.01 0.01 0.01 0.02 0.02 0.02 0.02 0.02 0.02 0.02 0.02 0.04 0.05 0.06 0.08 0.09 0.08 0.07 0.06 0.05
0.00 0.00 0.00 0.01 0.01 0.01 0.02 0.03 0.02 0.02 0.01 0.02 0.01 0.01 0.00 0.00 0.01 0.01 0.01 0.01 0.00 0.00 0.00 0.00 0.01 0.01 0.01 0.01 0.02 0.02 0.02 0.03 0.03 0.02 0.03 0.04 0.04 0.05 0.08 0.09 0.09 0.08 0.06 0.04
0.01 0.00 0.01 0.01 0.01 0.01 0.02 0.03 0.02 0.02 0.01 0.01 0.00 0.00 0.00 0.00 0.01 0.01 0.01 0.01 0.01 0.00 0.00 0.00 0.01 0.01 0.01 0.01 0.02 0.03 0.03 0.04 0.04 0.04 0.04 0.04 0.03 0.03 0.03 0.05 0.08 0.09 0.07 0.06
0.01 0.01 0.01 0.01 0.01 0.01 0.01 0.02 0.02 0.02 0.01 0.01 0.00 0.00 0.01 0.01 0.01 0.01 0.01 0.00 0.01 0.00 0.00 0.00 0.00 0.01 0.02 0.02 0.02 0.02 0.03 0.04 0.04 0.03 0.03 0.03 0.02 0.01 0.02 0.03 0.04 0.06 0.07 0.07
0.01 0.01 0.01 0.01 0.02 0.01 0.01 0.01 0.03 0.02 0.01 0.01 0.00 0.01 0.02 0.02 0.01 0.01 0.01 0.01 0.01 0.01 0.01 0.01 0.01 0.01 0.02 0.02 0.02 0.02 0.02 0.03 0.03 0.02 0.02 0.02 0.02 0.01 0.01 0.02 0.03 0.03 0.04 0.05
0.01 0.01 0.00 0.01 0.02 0.02 0.01 0.01 0.01 0.01 0.01 0.00 0.00 0.01 0.02 0.03 0.02 0.02 0.02 0.01 0.01 0.02 0.04 0.04 0.01 0.01 0.01 0.02 0.03 0.03 0.03 0.02 0.02 0.02 0.01 0.01 0.01 0.01 0.02 0.02 0.03 0.03 0.03 0.03
0.01 0.00 0.00 0.01 0.02 0.02 0.01 0.01 0.00 0.01 0.01 0.00 0.00 0.00 0.01 0.01 0.02 0.02 0.03 0.03 0.03 0.03 0.04 0.04 0.02 0.01 0.01 0.02 0.04 0.04 0.04 0.03 0.03 0.02 0.02 0.01 0.01 0.02 0.02 0.02 0.03 0.02 0.02 0.02
0.01 0.01 0.00 0.00 0.01 0.02 0.01 0.01 0.01 0.02 0.01 0.00 0.00 0.00 0.00 0.01 0.02 0.02 0.02 0.03 0.03 0.04 0.03 0.03 0.02 0.02 0.03 0.04 0.04 0.04 0.04 0.04 0.04 0.03 0.02 0.02 0.02 0.02 0.02 0.01 0.02 0.02 0.02 0.03
0.02 0.02 0.01 0.01 0.02 0.01 0.01 0.01 0.01 0.01 0.01 0.01 0.00 0.00 0.00 0.01 0.01 0.01 0.01 0.02 0.02 0.03 0.04 0.04 0.03 0.03 0.03 0.04 0.04 0.04 0.05 0.05 0.04 0.05 0.04 0.04 0.03 0.03 0.03 0.03 0.02 0.02 0.03 0.03
0.02 0.03 0.01 0.01 0.01 0.01 0.01 0.01 0.01 0.02 0.01 0.01 0.01 0.00 0.00 0.00 0.01 0.01 0.01 0.01 0.01 0.01 0.02 0.02 0.03 0.03 0.04 0.03 0.03 0.03 0.04 0.05 0.05 0.05 0.05 0.04 0.05 0.05 0.05 0.06 0.05 0.04 0.04 0.04
0.02 0.03 0.02 0.01 0.01 0.01 0.02 0.01 0.01 0.01 0.02 0.01 0.01 0.01 0.00 0.00 0.01 0.01 0.01 0.01 0.01 0.01 0.01 0.02 0.02 0.03 0.03 0.02 0.02 0.02 0.04 0.05 0.04 0.05 0.06 0.06 0.06 0.06 0.07 0.08 0.08 0.08 0.08 0.07
0.03 0.03 0.02 0.01 0.02 0.02 0.02 0.01 0.01 0.01 0.02 0.01 0.00 0.00 0.00 0.00 0.01 0.02 0.02 0.02 0.01 0.01 0.01 0.02 0.02 0.02 0.02 0.02 0.02 0.02 0.03 0.03 0.03 0.03 0.04 0.05 0.06 0.07 0.07 0.08 0.07 0.07 0.07 0.06
0.04 0.03 0.01 0.01 0.01 0.01 0.02 0.01 0.01 0.01 0.01 0.01 0.00 0.00 0.00 0.01 0.01 0.02 0.03 0.03 0.02 0.02 0.02 0.02 0.01 0.02 0.02 0.02 0.02 0.02 0.02 0.02 0.02 0.02 0.02 0.03 0.04 0.05 0.05 0.05 0.04 0.04 0.06 0.05
0.03 0.03 0.02 0.02 0.02 0.01 0.02 0.02 0.01 0.01 0.00 0.00 0.00 0.00 0.00 0.00 0.01 0.01 0.03 0.03 0.03 0.02 0.02 0.01 0.01 0.01 0.02 0.02 0.03 0.02 0.02 0.02 0.01 0.02 0.03 0.04 0.06 0.05 0.04 0.03 0.03 0.03 0.04 0.03
0.03 0.03 0.02 0.02 0.01 0.02 0.02 0.02 0.01 0.01 0.01 0.00 0.00 0.00 0.00 0.00 0.01 0.02 0.03 0.03 0.04 0.03 0.02 0.02 0.01 0.01 0.01 0.02 0.03 0.03 0.02 0.02 0.02 0.02 0.03 0.05 0.05 0.05 0.05 0.04 0.04 0.04 0.04 0.04
0.03 0.03 0.03 0.02 0.01 0.01 0.01 0.01 0.02 0.01 0.01 0.01 0.01 0.01 0.00 0.01 0.01 0.03 0.03 0.03 0.03 0.03 0.02 0.01 0.01 0.01 0.01 0.02 0.02 0.02 0.02 0.02 0.02 0.02 0.03 0.04 0.05 0.05 0.06 0.06 0.05 0.04 0.05 0.05
0.02 0.03 0.04 0.03 0.02 0.01 0.00 0.01 0.01 0.01 0.01 0.01 0.00 0.00 0.00 0.00 0.01 0.03 0.04 0.04 0.03 0.03 0.02 0.02 0.02 0.02 0.02 0.02 0.02 0.02 0.02 0.02 0.02 0.02 0.02 0.04 0.05 0.05 0.06 0.07 0.06 0.06 0.06 0.06
0.03 0.03 0.04 0.03 0.02 0.01 0.01 0.01 0.01 0.01 0.01 0.01 0.00 0.00 0.00 0.01 0.01 0.03 0.03 0.04 0.03 0.03 0.03 0.03 0.02 0.02 0.02 0.03 0.02 0.02 0.02 0.02 0.02 0.02 0.03 0.03 0.05 0.05 0.06 0.07 0.07 0.07 0.07 0.06
0.02 0.03 0.03 0.03 0.02 0.01 0.01 0.01 0.01 0.01 0.01 0.01 0.01 0.01 0.00 0.01 0.02 0.03 0.03 0.03 0.03 0.03 0.03 0.03 0.02 0.02 0.02 0.02 0.02 0.02 0.02 0.02 0.02 0.02 0.02 0.03 0.04 0.04 0.05 0.06 0.07 0.06 0.05 0.05
0.01 0.02 0.02 0.02 0.02 0.01 0.01 0.00 0.01 0.01 0.01 0.01 0.01 0.01 0.01 0.01 0.02 0.03 0.02 0.02 0.02 0.02 0.02 0.02 0.02 0.02 0.02 0.02 0.02 0.02 0.02 0.01 0.02 0.02 0.02 0.02 0.03 0.04 0.04 0.05 0.06 0.05 0.04 0.03
0.01 0.01 0.01 0.01 0.01 0.01 0.01 0.01 0.01 0.01 0.01 0.01 0.01 0.01 0.01 0.02 0.02 0.02 0.01 0.01 0.01 0.01 0.01 0.01 0.01 0.01 0.01 0.01 0.01 0.02 0.01 0.01 0.01 0.01 0.02 0.02 0.03 0.04 0.04 0.05 0.05 0.04 0.04 0.03
0.00 0.00 0.01 0.01 0.01 0.01 0.01 0.01 0.01 0.01 0.01 0.01 0.01 0.02 0.02 0.01 0.01 0.01 0.01 0.01 0.01 0.01 0.01 0.01 0.01 0.01 0.01 0.01 0.01 0.01 0.01 0.01 0.01 0.01 0.02 0.02 0.03 0.04 0.04 0.04 0.04 0.04 0.04 0.04
0.01 0.00 0.00 0.01 0.01 0.01 0.01 0.01 0.01 0.01 0.01 0.01 0.01 0.02 0.02 0.01 0.01 0.01 0.01 0.01 0.01 0.00 0.00 0.01 0.01 0.01 0.01 0.01 0.01 0.01 0.01 0.01 0.01 0.01 0.02 0.02 0.02 0.02 0.03 0.04 0.05 0.05 0.04 0.04
0.01 0.01 0.01 0.01 0.01 0.01 0.01 0.01 0.01 0.01 0.01 0.01 0.01 0.01 0.01 0.01 0.01 0.01 0.01 0.01 0.01 0.00 0.00 0.00 0.01 0.01 0.01 0.01 0.01 0.01 0.01 0.01 0.01 0.02 0.02 0.02 0.02 0.02 0.02 0.03 0.04 0.04 0.04 0.04
MSLP
1016.08 1016.37 1016.62 1016.88 1017.14 1017.44 1017.76 1018.08 1018.37 1018.55 1018.60 1018.47 1018.16 1017.67 1017.06 1016.37 1015.69 1015.09 1014.61 1014.29 1014.12 1014.06 1014.08 1014.12 1014.13 1014.07 1013.95 1013.77 1013.57 1013.39 1013.28 1013.27 1013.38 1013.61 1013.93 1014.31 1014.71 1015.08 1015.40 1015.67 1015.87 1016.04 1016.20 1016.36
1016.98 1017.16 1017.31 1017.49 1017.74 1018.07 1018.47 1018.92 1019.33 1019.64 1019.75 1019.63 1019.24 1018.62 1017.81 1016.92 1016.04 1015.27 1014.69 1014.33 1014.17 1014.19 1014.30 1014.44 1014.53 1014.52 1014.40 1014.20 1013.94 1013.70 1013.53 1013.48 1013.57 1013.79 1014.12 1014.51 1014.91 1015.29 1015.59 1015.83 1016.00 1016.13 1016.26 1016.41
1017.67 1017.73 1017.80 1017.94 1018.20 1018.61 1019.15 1019.75 1020.33 1020.77 1020.96 1020.84 1020.38 1019.60 1018.59 1017.47 1016.37 1015.43 1014.72 1014.30 1014.15 1014.22 1014.42 1014.65 1014.81 1014.86 1014.76 1014.55 1014.26 1013.98 1013.76 1013.68 1013.74 1013.95 1014.28 1014.67 1015.07 1015.43 1015.72 1015.93 1016.08 1016.19 1016.31 1016.45
1018.17 1018.14 1018.15 1018.29 1018.61 1019.14 1019.85 1020.64 1021.41 1021.99 1022.26 1022.14 1021.59 1020.66 1019.44 1018.08 1016.76 1015.62 1014.77 1014.27 1014.10 1014.20 1014.47 1014.77 1015.01 1015.10 1015.03 1014.82 1014.51 1014.19 1013.94 1013.81 1013.85 1014.04 1014.35 1014.73 1015.12 1015.47 1015.74 1015.94 1016.07 1016.18 1016.29 1016.44
1018.58 1018.48 1018.46 1018.63 1019.05 1019.74 1020.63 1021.63 1022.57 1023.29 1023.63 1023.49 1022.85 1021.76 1020.34 1018.75 1017.21 1015.88 1014.89 1014.30 1014.10 1014.21 1014.51 1014.86 1015.14 1015.28 1015.22 1015.00 1014.68 1014.32 1014.03 1013.87 1013.87 1014.03 1014.31 1014.67 1015.03 1015.36 1015.62 1015.81 1015.95 1016.06 1016.19 1016.37
1018.99 1018.85 1018.84 1019.07 1019.61 1020.45 1021.52 1022.70 1023.79 1024.61 1024.99 1024.83 1024.09 1022.84 1021.23 1019.45 1017.72 1016.22 1015.10 1014.42 1014.17 1014.27 1014.58 1014.95 1015.25 1015.40 1015.35 1015.12 1014.77 1014.38 1014.05 1013.85 1013.80 1013.92 1014.16 1014.48 1014.81 1015.12 1015.37 1015.56 1015.72 1015.86 1016.02 1016.24
1019.48 1019.32 1019.34 1019.65 1020.29 1021.27 1022.48 1023.79 1024.98 1025.84 1026.22 1026.00 1025.16 1023.78 1022.02 1020.08 1018.20 1016.58 1015.37 1014.62 1014.32 1014.39 1014.69 1015.06 1015.35 1015.49 1015.42 1015.17 1014.79 1014.37 1014.00 1013.75 1013.66 1013.73 1013.92 1014.20 1014.51 1014.80 1015.05 1015.25 1015.43 1015.61 1015.82 1016.08
1020.08 1019.92 1019.97 1020.34 1021.06 1022.12 1023.41 1024.77 1025.97 1026.82 1027.15 1026.85 1025.91 1024.43 1022.56 1020.53 1018.57 1016.89 1015.63 1014.85 1014.52 1014.56 1014.83 1015.17 1015.43 1015.54 1015.44 1015.15 1014.74 1014.28 1013.88 1013.59 1013.46 1013.49 1013.65 1013.90 1014.19 1014.47 1014.72 1014.94 1015.15 1015.37 1015.62 1015.92
1020.73 1020.58 1020.66 1021.06 1021.81 1022.89 1024.17 1025.49 1026.64 1027.40 1027.63 1027.23 1026.20 1024.65 1022.74 1020.69 1018.73 1017.06 1015.81 1015.03 1014.70 1014.72 1014.96 1015.25 1015.47 1015.52 1015.38 1015.05 1014.61 1014.13 1013.70 1013.40 1013.24 1013.25 1013.40 1013.63 1013.91 1014.19 1014.46 1014.70 1014.94 1015.19 1015.47 1015.80
1021.32 1021.18 1021.27 1021.67 1022.41 1023.43 1024.63 1025.83 1026.83 1027.45 1027.54 1027.03 1025.94 1024.37 1022.48 1020.49 1018.61 1017.02 1015.84 1015.12 1014.81 1014.82 1015.02 1015.26 1015.42 1015.42 1015.23 1014.87 1014.41 1013.92 1013.49 1013.19 1013.04 1013.05 1013.19 1013.43 1013.72 1014.01 1014.30 1014.57 1014.83 1015.11 1015.41 1015.74
1021.73 1021.60 1021.68 1022.06 1022.72 1023.63 1024.68 1025.69 1026.49 1026.92 1026.85 1026.24 1025.11 1023.56 1021.76 1019.89 1018.16 1016.73 1015.68 1015.05 1014.79 1014.81 1014.98 1015.17 1015.27 1015.22 1014.99 1014.61 1014.14 1013.67 1013.27 1012.99 1012.87 1012.90 1013.07 1013.33 1013.63 1013.95 1014.26 1014.55 1014.83 1015.12 1015.42 1015.74
1021.85 1021.73 1021.80 1022.12 1022.68 1023.44 1024.28 1025.06 1025.63 1025.85 1025.63 1024.93 1023.79 1022.32 1020.65 1018.98 1017.46 1016.22 1015.34 1014.83 1014.64 1014.67 1014.83 1014.97 1015.02 1014.91 1014.66 1014.27 1013.83 1013.39 1013.03 1012.80 1012.73 1012.81 1013.01 1013.30 1013.63 1013.97 1014.30 1014.61 1014.90 1015.18 1015.47 1015.77
1021.65 1021.54 1021.59 1021.85 1022.29 1022.87 1023.49 1024.03 1024.37 1024.38 1024.02 1023.26 1022.15 1020.78 1019.30 1017.85 1016.57 1015.55 1014.86 1014.48 1014.37 1014.43 1014.56 1014.66 1014.67 1014.53 1014.26 1013.89 1013.48 1013.09 1012.80 1012.64 1012.63 1012.75 1012.99 1013.31 1013.67 1014.03 1014.37 1014.69 1014.99 1015.27 1015.54 1015.81
1021.18 1021.08 1021.11 1021.29 1021.61 1022.01 1022.42 1022.73 1022.84 1022.67 1022.20 1021.40 1020.35 1019.13 1017.85 1016.64 1015.61 1014.82 1014.31 1014.06 1014.01 1014.09 1014.21 1014.28 1014.25 1014.09 1013.82 1013.48 1013.12 1012.80 1012.58 1012.48 1012.53 1012.70 1012.97 1013.32 1013.69 1014.06 1014.41 1014.74 1015.04 1015.32 1015.58 1015.83
1020.56 1020.46 1020.47 1020.57 1020.76 1020.99 1021.20 1021.29 1021.21 1020.90 1020.34 1019.55 1018.58 1017.51 1016.44 1015.47 1014.67 1014.09 1013.75 1013.61 1013.62 1013.72 1013.81 1013.85 1013.79 1013.63 1013.38 1013.07 1012.77 1012.51 1012.36 1012.32 1012.41 1012.62 1012.91 1013.26 1013.64 1014.02 1014.38 1014.72 1015.03 1015.32 1015.58 1015.84
1019.92 1019.82 1019.78 1019.80 1019.87 1019.93 1019.95 1019.86 1019.62 1019.19 1018.58 1017.81 1016.94 1016.03 1015.16 1014.41 1013.82 1013.43 1013.22 1013.17 1013.22 1013.32 1013.40 1013.41 1013.33 1013.16 1012.93 1012.67 1012.41 1012.22 1012.12 1012.13 1012.25 1012.47 1012.77 1013.12 1013.50 1013.88 1014.25 1014.61 1014.95 1015.26 1015.56 1015.83
1019.41 1019.27 1019.16 1019.09 1019.02 1018.92 1018.77 1018.52 1018.14 1017.63 1016.99 1016.27 1015.50 1014.74 1014.06 1013.50 1013.10 1012.85 1012.75 1012.76 1012.84 1012.93 1012.98 1012.96 1012.87 1012.70 1012.48 1012.25 1012.04 1011.90 1011.83 1011.87 1012.00 1012.22 1012.52 1012.86 1013.24 1013.63 1014.03 1014.42 1014.81 1015.17 1015.52 1015.84
1019.09 1018.88 1018.67 1018.47 1018.25 1018.00 1017.69 1017.29 1016.80 1016.23 1015.60 1014.93 1014.26 1013.65 1013.14 1012.75 1012.49 1012.37 1012.35 1012.40 1012.48 1012.55 1012.57 1012.52 1012.41 1012.23 1012.03 1011.82 1011.64 1011.52 1011.47 1011.52 1011.65 1011.86 1012.15 1012.49 1012.87 1013.29 1013.73 1014.18 1014.63 1015.07 1015.49 1015.87
1018.94 1018.62 1018.28 1017.93 1017.56 1017.14 1016.68 1016.16 1015.59 1014.97 1014.35 1013.75 1013.19 1012.72 1012.35 1012.11 1011.98 1011.95 1011.99 1012.06 1012.14 1012.18 1012.16 1012.08 1011.94 1011.75 1011.54 1011.34 1011.17 1011.06 1011.01 1011.05 1011.17 1011.38 1011.65 1012.00 1012.40 1012.86 1013.36 1013.89 1014.43 1014.96 1015.47 1015.93
1018.86 1018.41 1017.92 1017.41 1016.87 1016.29 1015.69 1015.06 1014.43 1013.80 1013.21 1012.68 1012.23 1011.90 1011.67 1011.55 1011.53 1011.58 1011.67 1011.76 1011.82 1011.83 1011.77 1011.64 1011.47 1011.25 1011.02 1010.80 1010.62 1010.50 1010.44 1010.47 1010.58 1010.77 1011.05 1011.41 1011.86 1012.38 1012.95 1013.57 1014.21 1014.85 1015.45 1015.98
1018.75 1018.14 1017.49 1016.82 1016.12 1015.40 1014.68 1013.97 1013.30 1012.68 1012.13 1011.69 1011.36 1011.16 1011.06 1011.07 1011.15 1011.26 1011.38 1011.48 1011.52 1011.49 1011.39 1011.21 1010.99 1010.73 1010.46 1010.21 1010.00 1009.85 1009.78 1009.78 1009.88 1010.08 1010.37 1010.76 1011.26 1011.84 1012.51 1013.23 1013.97 1014.70 1015.39 1016.00
1018.47 1017.72 1016.93 1016.11 1015.27 1014.44 1013.64 1012.88 1012.20 1011.61 1011.14 1010.79 1010.59 1010.50 1010.54 1010.65 1010.82 1010.99 1011.15 1011.24 1011.26 1011.19 1011.03 1010.80 1010.52 1010.20 1009.88 1009.59 1009.34 1009.15 1009.05 1009.04 1009.13 1009.33 1009.64 1010.08 1010.62 1011.28 1012.03 1012.84 1013.67 1014.49 1015.25 1015.92
1017.98 1017.11 1016.20 1015.27 1014.35 1013.45 1012.60 1011.84 1011.18 1010.65 1010.26 1010.03 1009.93 1009.98 1010.12 1010.33 1010.57 1010.80 1010.97 1011.06 1011.05 1010.93 1010.72 1010.42 1010.07 1009.69 1009.31 1008.96 1008.67 1008.45 1008.32 1008.29 1008.38 1008.59 1008.93 1009.40 1010.00 1010.72 1011.53 1012.40 1013.30 1014.18 1015.00 1015.72
1017.28 1016.34 1015.36 1014.38 1013.41 1012.50 1011.66 1010.93 1010.32 1009.87 1009.58 1009.45 1009.47 1009.62 1009.85 1010.14 1010.44 1010.69 1010.86 1010.93 1010.89 1010.72 1010.44 1010.08 1009.66 1009.21 1008.77 1008.38 1008.04 1007.79 1007.64 1007.61 1007.70 1007.92 1008.29 1008.79 1009.43 1010.18 1011.03 1011.94 1012.88 1013.79 1014.64 1015.39
1016.47 1015.49 1014.50 1013.52 1012.57 1011.69 1010.91 1010.24 1009.72 1009.36 1009.17 1009.13 1009.24 1009.47 1009.77 1010.11 1010.43 1010.68 1010.84 1010.88 1010.78 1010.56 1010.22 1009.79 1009.30 1008.80 1008.31 1007.87 1007.51 1007.24 1007.09 1007.06 1007.16 1007.40 1007.79 1008.31 1008.96 1009.72 1010.58 1011.49 1012.42 1013.34 1014.19 1014.95
1015.67 1014.70 1013.74 1012.81 1011.93 1011.14 1010.44 1009.87 1009.45 1009.18 1009.08 1009.12 1009.29 1009.57 1009.90 1010.24 1010.55 1010.78 1010.90 1010.88 1010.73 1010.44 1010.04 1009.55 1009.01 1008.47 1007.95 1007.49 1007.11 1006.85 1006.71 1006.70 1006.82 1007.09 1007.48 1008.01 1008.65 1009.40 1010.23 1011.11 1012.00 1012.88 1013.72 1014.48
Thickness
5549 5543 5540 5544 5544 5548 5544 5539 5537 5541 5544 5541 5538 5540 5545 5543 5540 5539 5538 5539 5540 5542 5544 5545 5547 5550 5553 5555 5557 5559 5561 5563 5566 5568 5569 5571 5573 5576 5578 5580 5582 5583 5585 5586
5535 5534 5540 5540 5540 5538 5536 5532 5529 5531 5535 5533 5528 5531 5537 5537 5536 5536 5534 5533 5533 5534 5536 5538 5539 5541 5543 5545 5547 5549 5551 5553 5556 5558 5560 5562 5564 5566 5567 5569 5570 5572 5574 5576
5532 5535 5537 5535 5531 5530 5530 5527 5526 5524 5524 5523 5521 5526 5531 5534 5531 5530 5529 5527 5527 5528 5528 5529 5530 5531 5533 5535 5537 5540 5542 5544 5546 5548 5550 5551 5553 5555 5557 5558 5560 5561 5564 5565
5521 5527 5529 5528 5525 5525 5524 5527 5523 5521 5513 5507 5513 5509 5524 5522 5523 5524 5521 5519 5518 5519 5520 5521 5522 5523 5524 5525 5528 5530 5532 5534 5536 5538 5540 5541 5542 5544 5546 5547 5548 5550 5552 5554
5517 5521 5522 5521 5522 5522 5518 5518 5514 5511 5504 5495 5498 5495 5513 5512 5515 5518 5516 5513 5511 5511 5512 5513 5514 5514 5515 5516 5517 5520 5522 5524 5526 5528 5530 5530 5531 5533 5534 5535 5537 5539 5541 5543
5510 5513 5514 5515 5516 5515 5511 5506 5500 5490 5486 5486 5492 5488 5502 5504 5512 5513 5510 5507 5504 5503 5504 5504 5505 5505 5506 5506 5508 5510 5512 5514 5516 5518 5519 5519 5520 5520 5522 5523 5525 5527 5530 5531
5501 5506 5506 5508 5507 5504 5503 5493 5480 5477 5468 5478 5486 5486 5496 5506 5505 5505 5502 5499 5497 5496 5495 5495 5496 5496 5497 5498 5499 5500 5503 5505 5506 5507 5508 5508 5508 5509 5510 5511 5513 5515 5517 5519
5487 5489 5497 5497 5499 5495 5493 5490 5479 5477 5469 5472 5476 5479 5493 5497 5495 5495 5493 5490 5489 5488 5487 5488 5488 5488 5488 5489 5490 5491 5493 5495 5496 5497 5498 5498 5498 5498 5499 5500 5502 5504 5506 5507
5477 5483 5490 5491 5491 5491 5485 5477 5479 5464 5452 5457 5466 5472 5485 5491 5489 5487 5485 5483 5481 5480 5479 5479 5479 5479 5480 5480 5481 5482 5484 5485 5486 5486 5487 5487 5487 5487 5488 5489 5490 5492 5494 5496
5473 5468 5477 5479 5483 5481 5481 5472 5461 5458 5460 5464 5468 5466 5477 5483 5482 5480 5476 5474 5473 5472 5471 5470 5471 5471 5472 5473 5473 5474 5475 5475 5476 5476 5476 5476 5476 5476 5477 5477 5479 5480 5483 5484
5465 5459 5463 5466 5466 5467 5467 5465 5459 5450 5451 5457 5459 5475 5479 5477 5476 5471 5468 5466 5464 5463 5462 5462 5462 5463 5464 5464 5464 5465 5465 5466 5466 5466 5466 5466 5466 5465 5465 5466 5467 5468 5470 5472
5455 5447 5444 5453 5460 5460 5459 5459 5453 5453 5445 5438 5444 5465 5472 5468 5466 5463 5460 5458 5457 5456 5455 5454 5454 5454 5455 5455 5455 5455 5456 5457 5457 5457 5456 5456 5456 5455 5454 5454 5455 5456 5458 5460
5447 5439 5441 5450 5450 5448 5448 5448 5445 5441 5434 5427 5437 5462 5463 5458 5457 5454 5451 5450 5449 5449 5448 5447 5446 5446 5446 5446 5446 5446 5446 5448 5448 5447 5446 5446 5445 5444 5443 5443 5443 5445 5447 5448
5444 5430 5437 5447 5448 5439 5437 5438 5435 5434 5431 5430 5439 5451 5455 5453 5450 5446 5443 5441 5440 5440 5438 5438 5438 5437 5437 5437 5437 5437 5437 5438 5438 5437 5436 5435 5434 5434 5433 5433 5433 5433 5435 5436
5435 5428 5425 5429 5432 5429 5430 5432 5430 5428 5432 5434 5443 5439 5448 5444 5440 5436 5432 5431 5432 5431 5430 5432 5431 5429 5428 5428 5428 5428 5428 5429 5429 5427 5426 5425 5424 5423 5423 5422 5422 5422 5423 5424
5422 5420 5417 5422 5427 5424 5425 5426 5427 5427 5427 5428 5431 5435 5438 5431 5429 5426 5424 5423 5424 5423 5423 5424 5423 5421 5419 5419 5419 5419 5419 5419 5419 5418 5416 5415 5415 5414 5413 5412 5412 5412 5412 5413
5410 5411 5413 5418 5414 5419 5421 5424 5423 5422 5419 5422 5429 5434 5427 5424 5423 5419 5417 5416 5415 5415 5416 5415 5414 5413 5411 5411 5411 5410 5411 5410 5409 5408 5407 5406 5405 5404 5403 5403 5403 5403 5403 5404
5405 5401 5397 5400 5406 5415 5430 5422 5420 5419 5419 5415 5418 5420 5417 5416 5414 5412 5410 5407 5406 5407 5408 5407 5406 5405 5404 5404 5403 5402 5403 5402 5400 5399 5398 5397 5396 5395 5394 5394 5394 5394 5394 5395
5403 5399 5391 5389 5395 5405 5419 5417 5410 5410 5414 5412 5410 5411 5408 5406 5407 5407 5405 5402 5400 5400 5399 5399 5399 5398 5397 5396 5395 5395 5394 5393 5392 5391 5390 5389 5388 5387 5387 5386 5386 5385 5385 5386
5393 5392 5387 5382 5393 5404 5419 5411 5404 5406 5410 5412 5405 5404 5401 5401 5404 5406 5401 5397 5395 5393 5393 5392 5391 5390 5390 5389 5388 5387 5386 5385 5385 5384 5383 5382 5381 5380 5379 5379 5378 5378 5377 5378
5385 5382 5380 5378 5381 5394 5401 5398 5399 5404 5410 5404 5399 5397 5394 5394 5396 5396 5393 5390 5388 5386 5385 5384 5384 5383 5383 5382 5381 5379 5378 5377 5377 5376 5375 5375 5374 5373 5372 5372 5371 5370 5370 5370
5379 5375 5372 5370 5377 5395 5393 5389 5393 5397 5395 5392 5391 5390 5388 5387 5386 5385 5384 5382 5380 5378 5377 5377 5375 5375 5375 5374 5373 5372 5371 5370 5370 5369 5369 5368 5367 5366 5367 5365 5364 5363 5363 5363
5374 5378 5376 5378 5389 5389 5383 5384 5386 5384 5384 5386 5385 5383 5381 5379 5378 5377 5375 5374 5372 5370 5369 5368 5367 5367 5367 5367 5366 5365 5364 5363 5362 5362 5361 5361 5360 5360 5359 5358 5357 5356 5356 5356
5369 5367 5367 5367 5377 5379 5378 5377 5377 5377 5378 5379 5378 5376 5374 5372 5371 5369 5368 5366 5364 5362 5361 5360 5359 5359 5359 5358 5358 5357 5357 5356 5355 5354 5354 5354 5353 5353 5352 5352 5351 5350 5350 5350
5370 5361 5362 5364 5370 5372 5376 5373 5372 5372 5371 5371 5370 5369 5367 5365 5364 5362 5360 5358 5356 5355 5353 5352 5351 5351 5351 5351 5350 5350 5349 5348 5348 5347 5347 5347 5347 5346 5345 5345 5344 5344 5344 5345
5362 5360 5364 5372 5370 5368 5372 5371 5368 5366 5365 5364 5363 5362 5361 5359 5357 5355 5352 5350 5349 5347 5346 5344 5343 5343 5343 5343 5343 5343 5342 5341 5341 5341 5340 5340 5339 5339 5338 5338 5338 5338 5339 5340